Regional Weather Roundup
Issued by NWS

Home | Current Version | Previous Version | Text Only | Print | Product List | Glossary Off
Versions: 1 2 3 4 5 6 7 8 9 10 11 12 13 14 15 16 17 18 19 20 21 22 23 24 25 26 27 28 29 30 31 32 33 34 35 36 37 38 39 40 41 42 43 44 45 46 47 48 49 50

000
ASUS43 KDTX 181810
RWRMI
MICHIGAN HOURLY REGIONAL WEATHER ROUNDUP
NATIONAL WEATHER SERVICE DETROIT/PONTIAC MI
200 PM EDT FRI APR 18 2014

NOTE: "FAIR" INDICATES FEW OR NO CLOUDS BELOW 12,000 FEET WITH NO
SIGNIFICANT WEATHER AND/OR OBSTRUCTION TO VISIBILITY.

MIZ047>049-052>055-059>063-066>070-074>076-081>083-181900-
SOUTHEAST LOWER MICHIGAN

CITY           SKY/WX    TMP DP  RH WIND       PRES   REMARKS
ADRIAN         CLOUDY    61  42  49 NW10G18   30.27S
6HR MIN TEMP:  46; 6HR MAX TEMP:  62;

ALMA           CLOUDY    55  35  46 W8        30.29S
ANN ARBOR      PTSUNNY   59  41  51 NW8       30.27S
BAD AXE        PTSUNNY   46  34  61 N7        30.31R
6HR MIN TEMP:  40; 6HR MAX TEMP:  47;

CARO           MOSUNNY   56  38  50 NW9       30.29R
DETROIT CITY   CLOUDY    54  44  69 NE14      30.28R
6HR MIN TEMP:  50; 6HR MAX TEMP:  59; 6HR PCP: TRACE;

DETROIT        CLOUDY    60  42  51 W6        30.27F
6HR MIN TEMP:  50; 6HR MAX TEMP:  61;

FLINT          PTSUNNY   59  38  45 NW9       30.29S
6HR MIN TEMP:  47; 6HR MAX TEMP:  59; 6HR PCP:  0.01;

GROSSE ILE     CLOUDY    54  41  62 SE9       30.26S
HILLSDALE      PTSUNNY   61  40  47 W8G16     30.27S
HOWELL         PTSUNNY   55  38  53 CALM      30.27S

CITY           SKY/WX    TMP DP  RH WIND       PRES   REMARKS
JACKSON        MOSUNNY   61  38  42 MISG      30.27S
6HR MIN TEMP:  46; 6HR MAX TEMP:  61; 6HR PCP:  0.01;

LAMBERTVILLE   CLOUDY    63  41  45 W10       30.26F
LANSING        PTSUNNY   57  36  45 W9        30.29S
6HR MIN TEMP:  45; 6HR MAX TEMP:  58;

LAPEER         CLOUDY    49  43  77 SE3       30.30S
MASON          PTSUNNY   58  38  46 NW5       30.28S
MONROE         CLOUDY    61  43  51 CALM      30.25F
MT. CLEMENS    CLOUDY    45  42  86 NE7       30.29S
6HR MIN TEMP:  44; 6HR MAX TEMP:  49; 6HR PCP:  0.03;

PONTIAC        PTSUNNY   56  43  61 CALM      30.27S
6HR MIN TEMP:  46; 6HR MAX TEMP:  56; 6HR PCP:  0.02;

PORT HOPE        N/A     41  33  73 CALM      30.30S
6HR MIN TEMP:  39; 6HR MAX TEMP:  43;

PORT HURON     CLOUDY    43  36  75 NE8       30.32S
TRI CITIES     CLOUDY    53  36  52 E3        30.30S
6HR MIN TEMP:  43; 6HR MAX TEMP:  53;

TROY           CLOUDY    51  45  80 NE10      30.29R
SAGINAW HB     PTSUNNY   54  37  54 NE7       30.30R
YPSILANTI      CLOUDY    62  42  47 W8        30.27F
6HR MIN TEMP:  50; 6HR MAX TEMP:  64; 6HR PCP: TRACE;

$$
MIZ043>046-050>051-056>058-064>065-071>073-077>080-181900-
SOUTHWEST LOWER MICHIGAN

CITY           SKY/WX    TMP DP  RH WIND       PRES   REMARKS
BATTLE CREEK   PTSUNNY   59  36  42 VRB6      30.28F
6HR MIN TEMP:  46; 6HR MAX TEMP:  61; 6HR PCP: TRACE;

BENTON HARBOR  SUNNY     46  37  71 NW7       30.34S
6HR MIN TEMP:  40; 6HR MAX TEMP:  47;

BIG RAPIDS     MOSUNNY   52  33  47 NW12G17   30.29S
6HR MIN TEMP:  39; 6HR MAX TEMP:  53;

COLDWATER      MOSUNNY   61  37  41 W9G18     30.28S
6HR MIN TEMP:  46; 6HR MAX TEMP:  61;

FREMONT        FAIR      53  32  45 NW8       30.30F
HOLLAND        SUNNY     54  39  57 W10       30.33S
6HR MIN TEMP:  40; 6HR MAX TEMP:  56;

GRAND RAPIDS   PTSUNNY   58  39  49 W10G18    30.30S
6HR MIN TEMP:  44; 6HR MAX TEMP:  59;

IONIA          MOCLDY    57  37  46 NW7       30.27F
KALAMAZOO      MOSUNNY   60  34  37 W5        30.29S
6HR MIN TEMP:  47; 6HR MAX TEMP:  62; 6HR PCP: TRACE;

LUDINGTON      SUNNY     40  30  65 NW13      30.37S WCI  33
6HR MIN TEMP:  37; 6HR MAX TEMP:  42;

MARSHALL       MOSUNNY   61  37  41 CALM      30.27S
MOUNT PLEASANT PTSUNNY   54  36  51 W8        30.28F
6HR MIN TEMP:  40; 6HR MAX TEMP:  55;

MUSKEGON       MOSUNNY   52  34  50 W13       30.33S
6HR MIN TEMP:  41; 6HR MAX TEMP:  55;

SOUTH HAVEN    PTSUNNY   49  37  62 N9        30.34R
$$
MIZ016>042-181900-
NORTHERN LOWER MICHIGAN

CITY           SKY/WX    TMP DP  RH WIND       PRES   REMARKS
ALPENA         CLOUDY    42  28  57 W10G18    30.31S
6HR MIN TEMP:  33; 6HR MAX TEMP:  43;

BEAVER ISLAND  CLOUDY    37  30  73 SW9       30.37R WCI  31
6HR MIN TEMP:  32; 6HR MAX TEMP:  38;

BELLAIRE       CLOUDY    38  26  63 NW8       30.37R WCI  32
6HR MIN TEMP:  32; 6HR MAX TEMP:  38;

CADILLAC       PTSUNNY   44  32  61 W8G17     30.30S
CHARLEVOIX     CLOUDY    38  28  68 W10       30.40R WCI  31
6HR MIN TEMP:  34; 6HR MAX TEMP:  38;

FRANKFORT      CLOUDY    38  26  61 N8        30.38S WCI  33
GAYLORD        CLOUDY    36  25  64 W8        30.31R WCI  30
6HR MIN TEMP:  31; 6HR MAX TEMP:  37;

GRAYLING       PTSUNNY   40  27  59 NW10G18   30.32S WCI  34
6HR MIN TEMP:  33; 6HR MAX TEMP:  40;

HARBOR SPRINGS CLOUDY    38  30  75 W7        30.34S WCI  32
HOUGHTON LAKE  PTSUNNY   45  31  58 W12       30.31S
6HR MIN TEMP:  32; 6HR MAX TEMP:  46;

MANISTEE       PTSUNNY   39  25  56 NW14      30.39R WCI  31
OSCODA         PTSUNNY   42  31  66 E9        30.30S
PELLSTON       CLOUDY    39  25  57 NW14      30.35R WCI  31
6HR MIN TEMP:  34; 6HR MAX TEMP:  40;

ROGERS CITY    CLOUDY    37  31  77 NW12      30.33S WCI  29
TRAVERSE CITY  CLOUDY    39  28  64 NE9       30.36S WCI  33
6HR MIN TEMP:  35; 6HR MAX TEMP:  39;

$$
MIZ007>008-015-181900-
EASTERN UPPER MICHIGAN

CITY           SKY/WX    TMP DP  RH WIND       PRES   REMARKS
KINROSS        CLOUDY    36  30  80 NW12      30.31S WCI  27
6HR MIN TEMP:  32; 6HR MAX TEMP:  36;

MACKINAC ISLAN CLOUDY    34  29  82 SW7       30.33S WCI  28
6HR MIN TEMP:  32; 6HR MAX TEMP:  35;

NEWBERRY       CLOUDY    35  28  76 W12G17    30.34R WCI  27
6HR MIN TEMP:  31; 6HR MAX TEMP:  35;

S. S. MARIE    CLOUDY    35  29  78 NW10      30.31S WCI  27
6HR MIN TEMP:  32; 6HR MAX TEMP:  36;

MUNISING         N/A     35  27  72 NW12G20   30.39R WCI  27
6HR MIN TEMP:  33; 6HR MAX TEMP:  35;

$$
MIZ004>006-011>014-085-181900-
CENTRAL UPPER MICHIGAN

CITY           SKY/WX    TMP DP  RH WIND       PRES   REMARKS
MANISTIQUE     CLOUDY    37  28  71 NW13      30.36R WCI  28
6HR MIN TEMP:  32; 6HR MAX TEMP:  37;

ESCANABA       CLOUDY    41  25  52 N9G16     30.36R
6HR MIN TEMP:  34; 6HR MAX TEMP:  41;

MENOMINEE      PTSUNNY   43  27  52 N5        30.37S
6HR MIN TEMP:  34; 6HR MAX TEMP:  43;

SAWYER-GWINN   CLOUDY    36  25  64 NW10      30.36R WCI  28
$$
MIZ001>003-009>011-084-181900-
WESTERN UPPER MICHIGAN

CITY           SKY/WX    TMP DP  RH WIND       PRES   REMARKS
IRON MOUNTAIN  PTSUNNY   38  23  55 NW13      30.35F WCI  30
6HR MIN TEMP:  32; 6HR MAX TEMP:  38;

HOUGHTON       PTSUNNY   34  26  72 NW10      30.39R WCI  26
6HR MIN TEMP:  29; 6HR MAX TEMP:  34;

COPPER HARBOR    N/A     34  28  79 N14       30.41R WCI  25
6HR MIN TEMP:  30; 6HR MAX TEMP:  34; 6HR PCP:  0.03;

IRONWOOD       MOSUNNY   36  21  55 W3        30.36S
6HR MIN TEMP:  21; 6HR MAX TEMP:  37; 6HR PCP:  0.02;

$$

ABBREVIATIONS USED IN REMARKS
   TC - TEMPERATURE IN CELSIUS
  WCI - WIND CHILL INDEX
   HX - HEAT INDEX
  VSB - VISIBILITY




USA.gov is the U.S. government's official web portal to all federal, state and local government web resources and services.